Home > Weather > Stuhr > Past weeks

Flag for Germany Past Weather in Stuhr, Lower Saxony, Germany — Yesterday and Last 2 Weeks

Now
63 °F

Partly sunny.


Feels Like: 63 °F
Forecast: 54 / 66 °F
Wind: 8 mph from North

Location: Bremen Airport

Current Time: Jun 25, 2016 at 7:11:32 AM

Latest Report: Jun 25, 2016 at 6:20 AM


Visibility: 4 mi

Pressure: 29.98 "Hg

Humidity: 94%

Dew Point: 61 °F

Location of StuhrLocation

Past Weather in Stuhr — Graph

°F

Stuhr Temperature Yesterday

Maximum temperature yesterday: 81 °F (at 2:50 PM)
Minimum temperature yesterday: 64 °F (at 10:50 PM)
Average temperature yesterday: 70 °F

High & Low Weather Summary for the Past Weeks

 TemperatureHumidityPressure
High88 °F (Jun 23, 2:50 PM)100% (Jun 11, 4:20 AM)30.21 "Hg (Jun 11, 4:20 AM)
Low46 °F (Jun 20, 1:50 AM)40% (Jun 11, 2:50 PM)29.45 "Hg (Jun 14, 12:50 PM)
Average63 °F80%29.85 "Hg
* Reported Jun 10 5:20 AM — Jun 25 5:50 AM, Stuhr, Weather by CustomWeather, © 2016

Note: Actual official high and low records may vary slightly from our data, if they occured in-between our weather recording intervals... More about our weather records

Advertising

Stuhr Weather History for the Previous 24 Hours

Scroll right to see more
 ConditionsComfort  
Time TempWeatherWind HumidityBarometerVisibility
5:50 AM
Sat, Jun 25
63 °FFog.7 mph94%29.98 "Hg3 mi
5:20 AM63 °FFog.6 mph94%29.98 "Hg3 mi
4:50 AM63 °FFog.7 mph94%30.01 "Hg3 mi
4:20 AM63 °FFog.6 mph94%30.01 "Hg3 mi
3:50 AM63 °FFog.5 mph94%30.01 "Hg3 mi
3:20 AM63 °FPartly cloudy.6 mph94%30.01 "Hg4 mi
2:50 AM63 °FFog.6 mph94%30.04 "Hg4 mi
2:20 AM63 °FFog.7 mph94%30.04 "Hg4 mi
1:50 AM64 °FFog.6 mph88%30.04 "Hg3 mi
1:20 AM64 °FPassing clouds.7 mph94%30.04 "Hg5 mi
12:50 AM64 °FPassing clouds.8 mph88%30.04 "Hg5 mi
12:20 AM64 °FPassing clouds.8 mph88%30.04 "Hg5 mi
11:50 PM
Fri, Jun 24
64 °FPassing clouds.7 mph94%30.04 "HgN/A
11:20 PM64 °FPartly cloudy.8 mph94%30.04 "HgN/A
10:50 PM64 °FPartly sunny.9 mph94%30.04 "HgN/A
10:20 PM66 °FBroken clouds.6 mph88%30.04 "HgN/A
9:50 PM66 °FBroken clouds.8 mph88%30.04 "HgN/A
9:20 PM66 °FPartly sunny.8 mph94%30.04 "HgN/A
8:50 PM68 °FPartly sunny.8 mph88%30.04 "HgN/A
8:20 PM68 °FBroken clouds.8 mph94%30.04 "Hg5 mi
7:50 PM68 °FSprinkles. Partly sunny.9 mph94%30.04 "Hg4 mi
7:20 PM68 °FSprinkles. Broken clouds.8 mph100%30.04 "Hg4 mi
6:50 PM70 °FSprinkles. Broken clouds.6 mph94%30.04 "Hg6 mi
6:20 PM68 °FThunderstorms. Broken clouds.13 mph100%30.04 "Hg2 mi
5:50 PM73 °FThunderstorms. Partly sunny.7 mph83%30.01 "HgN/A
5:20 PM75 °FThunderstorms. Broken clouds.12 mph78%30.01 "HgN/A
4:50 PM77 °FBroken clouds.13 mph74%30.01 "HgN/A
4:20 PM77 °FBroken clouds.10 mph74%30.01 "HgN/A
3:50 PM79 °FBroken clouds.8 mph70%30.01 "HgN/A
3:20 PM77 °FBroken clouds.9 mph74%30.04 "HgN/A
2:50 PM81 °FScattered clouds.6 mph66%30.01 "HgN/A
2:20 PM79 °FBroken clouds.3 mph70%30.01 "HgN/A
1:50 PM79 °FPartly sunny.5 mph70%30.01 "HgN/A
1:20 PM77 °FPartly sunny.7 mph74%30.04 "HgN/A
12:50 PM77 °FPartly sunny.7 mph74%30.04 "HgN/A
12:20 PM77 °FPartly sunny.7 mph74%30.04 "HgN/A
11:50 AM75 °FBroken clouds.5 mph78%30.04 "HgN/A
11:20 AM72 °FPartly sunny.6 mph83%30.04 "HgN/A
10:50 AM70 °FPartly sunny.10 mph88%30.04 "HgN/A
10:20 AM68 °FScattered clouds.3 mph94%30.01 "HgN/A
9:50 AM68 °FThunderstorms. Broken clouds.8 mph88%30.01 "HgN/A
9:20 AM68 °FThundershowers. Broken clouds.10 mph94%30.07 "HgN/A
8:50 AM68 °FThunderstorms. Partly sunny.8 mph88%30.04 "HgN/A
8:20 AM66 °FBroken clouds.3 mph100%30.04 "HgN/A
7:50 AM66 °FScattered clouds.1 mph94%30.01 "HgN/A
7:20 AM66 °FThunderstorms. Partly sunny.5 mph94%30.01 "HgN/A
Weather by CustomWeather, © 2016

See weather overviewHow to use our weather pages